Weather observations for the past three days for
Los Angeles / USC Campus Downtown
Metric (Imperial)
Date Time (pdt) Wind (kph) Vis. (km) Weather Sky Cond. Temperature (ºC) Relative Humidity Wind Chill (°C) Heat Index (°C) Pressure Precipitation (cm)
Air Dwpt 6 hour altimeter (cm) sea level (mb) 1 hr 3 hr 6 hr
Max. Min.
20 07:47 Calm 16.09 Overcast OVC025 15.6 11.1 75% 76.23 1016.1
20 06:47 Calm 16.09 Overcast OVC024 15.6 11.1 75% 76.17 1015.5
20 05:47 Calm 16.09 Overcast OVC025 15 11.1 78% 76.15 1014.9
20 04:47 Calm 16.09 Overcast OVC024 15 11.1 15 13.9 78% 76.12 1014.7
20 03:47 Calm 16.09 Overcast OVC022 15 11.1 78% 76.1 1014.5
20 02:47 Calm 16.09 Overcast OVC017 14.4 11.1 81% 76.12 1014.6
20 01:47 Calm 16.09 Overcast OVC017 14.4 11.7 84% 76.15 1015.1
20 00:47 Calm 16.09 Fair CLR 14.4 11.1 81% 76.15 1015.1
19 23:47 W 7 16.09 A Few Clouds FEW010 14.4 11.7 84% 76.2 1015.6
19 22:47 Calm 16.09 Fair CLR 14.4 11.1 18.9 14.4 81% 76.2 1015.7
19 21:47 Calm 16.09 Fair CLR 15 11.1 78% 76.2 1015.7
19 20:47 Calm 16.09 Fair CLR 16.1 11.1 72% 76.15 1015.2
19 19:47 W 6 16.09 Fair CLR 16.7 10.6 67% 76.15 1015.0
19 18:47 W 9 16.09 Fair CLR 17.8 10.6 63% 76.17 1015.5
19 17:47 Vrbl 11 16.09 Fair CLR 18.3 11.1 63% 76.2 1015.9
19 16:47 Vrbl 6 16.09 Fair CLR 18.9 11.1 22.2 18.3 61% 76.23 1015.9
19 15:47 W 7 16.09 A Few Clouds FEW027 20 11.7 59% 76.23 1016.2
19 14:47 Vrbl 9 16.09 A Few Clouds FEW028 20 10.6 55% 76.3 1017.2
19 13:47 Calm 16.09 A Few Clouds FEW032 20 10.6 55% 76.33 1017.3
19 12:47 Calm 16.09 Mostly Cloudy BKN031 20 11.1 57% 76.3 1017.2
19 11:47 Vrbl 6 16.09 Overcast OVC034 20.6 11.1 55% 76.3 1017.1
19 10:47 Calm 16.09 Overcast OVC028 18.9 10.6 18.9 15.6 59% 76.33 1017.5
19 09:47 Calm 16.09 Overcast OVC026 17.8 10.6 63% 76.35 1017.7
19 08:47 Calm 16.09 Overcast OVC027 16.7 11.1 70% 76.35 1017.8
19 07:47 Calm 16.09 Overcast OVC025 15.6 10.6 72% 76.35 1017.7
19 06:47 W 6 16.09 Overcast OVC025 15.6 10.6 72% 76.33 1017.4
19 05:47 Calm 16.09 Overcast OVC024 15.6 10 70% 76.3 1017.0
19 04:47 Calm 16.09 Overcast OVC022 15.6 10.6 15.6 15 72% 76.28 1016.8
19 03:47 Calm 16.09 Overcast OVC018 15.6 10.6 72% 76.28 1016.6
19 02:47 Calm 16.09 Overcast OVC017 15.6 11.1 75% 76.28 1016.6
19 01:47 Calm 16.09 Overcast OVC015 15.6 11.7 78% 76.28 1016.9
19 00:47 Calm 16.09 Overcast OVC015 15.6 11.7 78% 76.28 1016.8
18 23:47 Calm 16.09 Overcast OVC014 15.6 11.7 78% 76.3 1017.0
18 22:47 Calm 16.09 Overcast OVC015 15 11.7 19.4 15 81% 76.33 1017.3
18 21:47 Calm 16.09 Partly Cloudy SCT015 15.6 11.1 75% 76.3 1016.9
18 20:47 W 7 16.09 Overcast OVC014 15.6 11.7 78% 76.28 1016.6
18 19:47 Calm 16.09 Partly Cloudy SCT014 16.1 11.7 75% 76.23 1015.9
18 18:47 W 11 16.09 A Few Clouds FEW018 17.8 12.2 70% 76.17 1015.3
18 17:47 Vrbl 6 16.09 A Few Clouds FEW019 18.9 12.2 65% 76.15 1015.1
18 16:47 Vrbl 6 16.09 A Few Clouds FEW019 18.9 12.2 20.6 17.8 65% 76.17 1015.4
18 15:47 SW 6 16.09 Partly Cloudy SCT020 19.4 12.8 66% 76.17 1015.3
18 14:47 Vrbl 6 16.09 Mostly Cloudy BKN026 20 12.2 61% 76.17 1015.4
18 13:47 Calm 16.09 Overcast OVC028 20 12.2 61% 76.17 1015.5
18 12:47 Calm 16.09 Overcast OVC024 19.4 12.8 66% 76.23 1016.0
18 11:47 Calm 16.09 Overcast OVC024 18.9 12.2 65% 76.25 1016.3
18 10:47 Calm 16.09 Overcast OVC020 17.8 12.8 17.8 15.6 73% 76.25 1016.6
Date Time (pdt) Wind (kph) Vis. (km) Weather Sky Cond. Air Dwpt Max. Min. Relative Humidity Wind Chill (°C) Heat Index (°C) altimeter (cm) sea level (mb) 1 hr 3 hr 6 hr
6 hour
Temperature (ºC) Pressure Precipitation (cm)